TimeEDT,TemperatureF,Dew PointF,Humidity,Sea Level PressureIn,VisibilityMPH,Wind Direction,Wind SpeedMPH,Gust SpeedMPH,PrecipitationIn,Events,Conditions,WindDirDegrees,DateUTC
12:20 AM,62.6,62.6,100,29.92,7.0,NE,13.8,-,N/A,,Overcast,40,2013-10-11 04:20:00
12:25 AM,62.6,62.6,100,29.91,7.0,NE,13.8,-,N/A,,Overcast,40,2013-10-11 04:25:00
12:28 AM,62.6,62.6,100,29.91,7.0,NE,15.0,-,N/A,Rain,Light Rain,40,2013-10-11 04:28:00
12:38 AM,62.6,62.6,100,29.91,8.0,NE,17.3,-,N/A,,Overcast,40,2013-10-11 04:38:00
12:53 AM,62.6,62.6,100,29.91,6.0,NE,12.7,24.2,N/A,,Overcast,40,2013-10-11 04:53:00
12:58 AM,63.1,63.1,100,29.92,5.0,NE,13.8,-,0.01,,Overcast,40,2013-10-11 04:58:00
1:43 AM,62.6,62.6,100,29.91,10.0,NE,17.3,25.3,N/A,,Overcast,40,2013-10-11 05:43:00
1:48 AM,62.6,62.6,100,29.91,9.0,NNE,16.1,25.3,N/A,Rain,Light Rain,30,2013-10-11 05:48:00
1:53 AM,62.6,62.6,100,29.91,6.0,NNE,12.7,25.3,N/A,Rain,Light Rain,30,2013-10-11 05:53:00
1:58 AM,62.8,62.8,100,29.92,6.0,NE,15.0,20.7,0.00,Rain,Light Rain,40,2013-10-11 05:58:00
2:58 AM,62.8,62.8,100,29.90,6.0,NNE,12.7,-,0.02,Rain,Light Rain,30,2013-10-11 06:58:00
3:00 AM,62.6,62.6,100,29.90,7.0,NE,13.8,-,N/A,,Overcast,40,2013-10-11 07:00:00
3:10 AM,62.6,62.6,100,29.89,9.0,NNE,13.8,-,N/A,,Overcast,30,2013-10-11 07:10:00
3:11 AM,62.6,62.6,100,29.89,8.0,NNE,12.7,-,N/A,Rain,Light Rain,30,2013-10-11 07:11:00
3:25 AM,62.6,62.6,100,29.89,9.0,NNE,13.8,-,N/A,,Overcast,30,2013-10-11 07:25:00
3:26 AM,62.6,62.6,100,29.89,9.0,NNE,15.0,-,N/A,Rain,Light Rain,30,2013-10-11 07:26:00
3:56 AM,62.6,62.6,100,29.88,10.0,NNE,12.7,21.9,N/A,,Light Drizzle,30,2013-10-11 07:56:00
3:58 AM,62.8,62.8,100,29.89,10.0,NNE,13.8,21.9,0.01,,Light Drizzle,30,2013-10-11 07:58:00
3:59 AM,62.6,62.6,100,29.88,10.0,NNE,16.1,21.9,N/A,,Overcast,30,2013-10-11 07:59:00
4:02 AM,62.6,62.6,100,29.88,7.0,NNE,13.8,21.9,N/A,Rain,Rain,30,2013-10-11 08:02:00
4:32 AM,62.6,62.6,100,29.89,5.0,NNE,13.8,-,N/A,Rain,Light Rain,30,2013-10-11 08:32:00
4:47 AM,62.6,62.6,100,29.88,6.0,NNE,13.8,-,N/A,Rain,Light Rain,20,2013-10-11 08:47:00
4:58 AM,62.6,62.6,100,29.89,9.0,NNE,12.7,-,0.02,Rain,Light Rain,20,2013-10-11 08:58:00
5:13 AM,62.6,62.6,100,29.90,2.5,NNE,6.9,-,N/A,Rain,Heavy Rain,20,2013-10-11 09:13:00
5:18 AM,62.6,62.6,100,29.89,1.5,NNE,12.7,-,N/A,Rain,Heavy Rain,30,2013-10-11 09:18:00
5:23 AM,62.6,62.6,100,29.89,1.2,NNE,12.7,-,N/A,Rain,Heavy Rain,20,2013-10-11 09:23:00
5:33 AM,62.6,62.6,100,29.89,1.5,NNE,13.8,-,N/A,Rain,Heavy Rain,30,2013-10-11 09:33:00
5:48 AM,62.6,62.6,100,29.89,2.0,NE,13.8,-,N/A,Rain,Rain,40,2013-10-11 09:48:00
5:53 AM,62.6,62.6,100,29.89,4.0,NNE,13.8,-,N/A,Rain,Light Rain,30,2013-10-11 09:53:00
5:58 AM,63.0,63.0,100,29.90,6.0,NNE,16.1,23.0,0.68,Rain,Light Rain,30,2013-10-11 09:58:00
6:03 AM,62.6,62.6,100,29.89,5.0,NNE,16.1,23.0,N/A,Rain,Light Rain,30,2013-10-11 10:03:00
6:08 AM,62.6,62.6,100,29.90,6.0,NNE,11.5,-,N/A,Rain,Light Rain,30,2013-10-11 10:08:00
6:18 AM,62.6,62.6,100,29.90,5.0,NE,12.7,20.7,N/A,Rain,Light Rain,40,2013-10-11 10:18:00
6:23 AM,62.6,62.6,100,29.89,7.0,NE,13.8,20.7,N/A,Rain,Light Rain,40,2013-10-11 10:23:00
6:33 AM,62.6,62.6,100,29.89,5.0,NE,15.0,25.3,N/A,Rain,Light Rain,40,2013-10-11 10:33:00
6:43 AM,64.4,64.4,100,29.90,5.0,NE,17.3,25.3,N/A,Rain,Light Rain,40,2013-10-11 10:43:00
6:53 AM,64.4,64.4,100,29.90,10.0,NE,13.8,21.9,N/A,Rain,Light Rain,40,2013-10-11 10:53:00
6:58 AM,63.7,63.7,100,29.91,10.0,NE,13.8,-,0.08,Rain,Light Rain,40,2013-10-11 10:58:00
7:10 AM,64.4,64.4,100,29.90,10.0,NNE,11.5,-,N/A,,Overcast,30,2013-10-11 11:10:00
7:13 AM,64.4,64.4,100,29.90,10.0,NNE,11.5,-,N/A,Rain,Light Rain,30,2013-10-11 11:13:00
7:38 AM,64.4,64.4,100,29.90,3.0,NNE,13.8,-,N/A,Rain,Heavy Rain,30,2013-10-11 11:38:00
7:43 AM,64.4,64.4,100,29.90,3.0,NE,13.8,-,N/A,Rain,Rain,40,2013-10-11 11:43:00
7:58 AM,64.0,64.0,100,29.91,10.0,NNE,12.7,20.7,0.07,Rain,Light Rain,30,2013-10-11 11:58:00
7:59 AM,64.4,64.4,100,29.90,10.0,NNE,11.5,20.7,N/A,,Overcast,30,2013-10-11 11:59:00
8:16 AM,64.4,64.4,100,29.90,10.0,NNE,15.0,-,N/A,Rain,Light Rain,30,2013-10-11 12:16:00
8:51 AM,64.4,64.4,100,29.91,1.8,NNE,16.1,20.7,N/A,Rain,Heavy Rain,30,2013-10-11 12:51:00
8:58 AM,64.2,64.2,100,29.92,1.5,NNE,16.1,23.0,0.08,Rain,Light Rain,30,2013-10-11 12:58:00
9:03 AM,64.4,64.4,100,29.91,4.0,NNE,16.1,-,N/A,Rain,Light Rain,30,2013-10-11 13:03:00
9:15 AM,64.4,64.4,100,29.91,10.0,NE,17.3,24.2,N/A,,Overcast,40,2013-10-11 13:15:00
9:25 AM,64.4,64.4,100,29.91,9.0,NNE,16.1,24.2,N/A,Rain,Light Rain,30,2013-10-11 13:25:00
9:30 AM,64.4,64.4,100,29.91,7.0,NNE,16.1,-,N/A,Rain,Light Rain,30,2013-10-11 13:30:00
9:58 AM,64.6,64.6,100,29.94,8.0,NE,15.0,23.0,0.04,Rain,Light Rain,40,2013-10-11 13:58:00
9:59 AM,64.4,64.4,100,29.93,9.0,NE,16.1,23.0,N/A,,Overcast,40,2013-10-11 13:59:00
10:01 AM,64.4,64.4,100,29.93,9.0,NE,15.0,24.2,N/A,,Light Drizzle,40,2013-10-11 14:01:00
10:11 AM,64.4,64.4,100,29.93,2.5,NNE,15.0,23.0,N/A,Rain,Light Rain,30,2013-10-11 14:11:00
10:26 AM,64.4,64.4,100,29.93,5.0,NNE,15.0,-,N/A,Rain,Light Rain,30,2013-10-11 14:26:00
10:31 AM,64.4,64.4,100,29.92,8.0,NNE,16.1,-,N/A,Rain,Light Rain,30,2013-10-11 14:31:00
10:58 AM,64.4,64.4,100,29.94,10.0,NNE,18.4,23.0,0.02,Rain,Light Rain,30,2013-10-11 14:58:00
11:23 AM,64.4,64.4,100,29.93,10.0,NNE,13.8,23.0,N/A,,Overcast,30,2013-10-11 15:23:00
11:26 AM,64.4,64.4,100,29.93,10.0,NNE,15.0,23.0,N/A,Rain,Light Rain,30,2013-10-11 15:26:00
11:36 AM,64.4,64.4,100,29.93,10.0,NE,17.3,21.9,N/A,,Overcast,40,2013-10-11 15:36:00
11:51 AM,66.2,66.2,100,29.92,10.0,NNE,15.0,24.2,N/A,,Overcast,30,2013-10-11 15:51:00
11:58 AM,65.5,65.5,100,29.93,10.0,NNE,15.0,24.2,0.00,,Overcast,30,2013-10-11 15:58:00
12:03 PM,64.4,64.4,100,29.92,10.0,NE,15.0,25.3,N/A,,Overcast,40,2013-10-11 16:03:00
12:08 PM,64.4,64.4,100,29.92,10.0,NE,17.3,25.3,N/A,,Overcast,40,2013-10-11 16:08:00
12:13 PM,64.4,64.4,100,29.91,10.0,NNE,19.6,25.3,N/A,Rain,Light Rain,30,2013-10-11 16:13:00
12:18 PM,64.4,64.4,100,29.91,10.0,NNE,16.1,25.3,N/A,Rain,Light Rain,30,2013-10-11 16:18:00
12:23 PM,64.4,64.4,100,29.92,9.0,NNE,11.5,21.9,N/A,Rain,Light Rain,30,2013-10-11 16:23:00
12:33 PM,64.4,64.4,100,29.92,9.0,NNE,11.5,-,N/A,Rain,Light Rain,30,2013-10-11 16:33:00
12:58 PM,64.2,64.2,100,29.92,10.0,NNE,10.4,-,0.02,Rain,Light Rain,20,2013-10-11 16:58:00
1:12 PM,64.4,64.4,100,29.90,10.0,NE,12.7,-,N/A,,Overcast,40,2013-10-11 17:12:00
1:58 PM,66.0,65.7,99,29.91,10.0,NE,15.0,24.2,0.00,,Overcast,40,2013-10-11 17:58:00
2:38 PM,66.2,64.4,94,29.89,10.0,NNE,16.1,-,N/A,,Overcast,30,2013-10-11 18:38:00
2:47 PM,66.2,66.2,100,29.89,10.0,NE,13.8,-,N/A,Rain,Light Rain,40,2013-10-11 18:47:00
2:58 PM,65.7,65.5,99,29.90,2.0,NE,12.7,-,0.01,Rain,Rain,40,2013-10-11 18:58:00
3:03 PM,66.2,64.4,94,29.89,1.8,NNE,15.0,20.7,N/A,Rain,Light Rain,30,2013-10-11 19:03:00
3:08 PM,66.2,64.4,94,29.89,1.5,NNE,15.0,-,N/A,Rain,Light Rain,30,2013-10-11 19:08:00
3:18 PM,64.4,64.4,100,29.89,2.0,NNE,16.1,21.9,N/A,Rain,Light Rain,30,2013-10-11 19:18:00
3:23 PM,64.4,64.4,100,29.90,4.0,NNE,16.1,21.9,N/A,Rain,Light Rain,30,2013-10-11 19:23:00
3:47 PM,64.4,64.4,100,29.90,3.0,NNE,12.7,21.9,N/A,,Overcast,30,2013-10-11 19:47:00
3:49 PM,64.4,64.4,100,29.90,3.0,NNE,10.4,21.9,N/A,Rain,Light Rain,20,2013-10-11 19:49:00
3:58 PM,64.6,64.6,100,29.92,5.0,NNE,13.8,-,0.04,Rain,Light Rain,30,2013-10-11 19:58:00
4:08 PM,64.4,64.4,100,29.91,5.0,NNE,12.7,-,N/A,Rain,Light Rain,30,2013-10-11 20:08:00
4:18 PM,64.4,64.4,100,29.91,7.0,NNE,13.8,-,N/A,Rain,Light Rain,30,2013-10-11 20:18:00
4:23 PM,64.4,64.4,100,29.90,8.0,NNE,13.8,23.0,N/A,,Light Drizzle,30,2013-10-11 20:23:00
4:24 PM,64.4,64.4,100,29.90,9.0,NNE,15.0,23.0,N/A,,Overcast,30,2013-10-11 20:24:00
4:25 PM,64.4,64.4,100,29.90,9.0,NNE,16.1,24.2,N/A,,Light Drizzle,30,2013-10-11 20:25:00
4:35 PM,64.4,64.4,100,29.91,10.0,NNE,12.7,24.2,N/A,Rain,Light Rain,30,2013-10-11 20:35:00
4:38 PM,64.4,64.4,100,29.90,10.0,NNE,17.3,-,N/A,,Overcast,30,2013-10-11 20:38:00
4:58 PM,64.2,64.2,100,29.91,10.0,NNE,13.8,-,0.00,,Overcast,30,2013-10-11 20:58:00
5:06 PM,64.4,64.4,100,29.90,9.0,NNE,16.1,21.9,N/A,Rain,Light Rain,30,2013-10-11 21:06:00
5:26 PM,64.4,64.4,100,29.90,10.0,NNE,17.3,24.2,N/A,,Light Drizzle,30,2013-10-11 21:26:00
5:32 PM,64.4,64.4,100,29.90,10.0,NE,18.4,23.0,N/A,,Overcast,40,2013-10-11 21:32:00
5:43 PM,64.4,64.4,100,29.91,8.0,NE,20.7,28.8,N/A,Rain,Light Rain,40,2013-10-11 21:43:00
5:58 PM,64.0,63.7,99,29.92,9.0,NE,18.4,26.5,0.01,Rain,Light Rain,40,2013-10-11 21:58:00
6:18 PM,64.4,64.4,100,29.92,9.0,NNE,15.0,21.9,N/A,,Overcast,30,2013-10-11 22:18:00
6:33 PM,64.4,64.4,100,29.93,10.0,NE,15.0,-,N/A,Rain,Light Rain,40,2013-10-11 22:33:00
6:43 PM,64.4,64.4,100,29.93,4.0,NNE,13.8,23.0,N/A,Rain,Heavy Rain,30,2013-10-11 22:43:00
6:48 PM,64.4,64.4,100,29.93,2.0,NNE,13.8,20.7,N/A,Rain,Heavy Rain,30,2013-10-11 22:48:00
6:58 PM,63.9,63.5,99,29.94,3.0,NE,16.1,24.2,0.06,Rain,Light Rain,40,2013-10-11 22:58:00
7:03 PM,64.4,64.4,100,29.93,4.0,NE,15.0,24.2,N/A,Rain,Light Rain,40,2013-10-11 23:03:00
7:08 PM,64.4,64.4,100,29.93,7.0,NE,16.1,-,N/A,Rain,Light Rain,40,2013-10-11 23:08:00
7:23 PM,64.4,64.4,100,29.93,6.0,NNE,17.3,-,N/A,,Light Drizzle,30,2013-10-11 23:23:00
7:30 PM,64.4,64.4,100,29.94,6.0,NE,12.7,-,N/A,,Overcast,40,2013-10-11 23:30:00
7:45 PM,64.4,64.4,100,29.94,6.0,NNE,15.0,-,N/A,,Overcast,30,2013-10-11 23:45:00
7:58 PM,63.9,63.5,99,29.95,9.0,NE,13.8,-,0.01,,Overcast,40,2013-10-11 23:58:00
8:02 PM,64.4,64.4,100,29.94,7.0,NE,12.7,-,N/A,,Light Drizzle,40,2013-10-12 00:02:00
8:22 PM,64.4,64.4,100,29.94,5.0,NE,12.7,21.9,N/A,Rain,Light Rain,40,2013-10-12 00:22:00
8:32 PM,64.4,64.4,100,29.94,9.0,NNE,15.0,-,N/A,,Overcast,30,2013-10-12 00:32:00
8:37 PM,64.4,64.4,100,29.95,10.0,NE,16.1,-,N/A,,Overcast,40,2013-10-12 00:37:00
8:58 PM,64.0,64.0,100,29.96,10.0,NNE,16.1,23.0,0.00,,Overcast,30,2013-10-12 00:58:00
9:03 PM,64.4,64.4,100,29.95,9.0,NE,16.1,23.0,N/A,,Overcast,40,2013-10-12 01:03:00
9:06 PM,64.4,64.4,100,29.96,9.0,NNE,15.0,-,N/A,Rain,Light Rain,30,2013-10-12 01:06:00
9:16 PM,64.4,64.4,100,29.96,4.0,NE,16.1,24.2,N/A,Rain,Light Rain,40,2013-10-12 01:16:00
9:21 PM,64.4,64.4,100,29.96,4.0,NNE,16.1,24.2,N/A,Rain,Light Rain,30,2013-10-12 01:21:00
9:26 PM,64.4,64.4,100,29.96,5.0,NNE,15.0,-,N/A,Rain-Thunderstorm,Light Thunderstorms and Rain,30,2013-10-12 01:26:00
9:31 PM,64.4,64.4,100,29.96,6.0,NNE,18.4,-,N/A,Rain-Thunderstorm,Light Thunderstorms and Rain,30,2013-10-12 01:31:00
9:36 PM,64.4,64.4,100,29.97,7.0,NNE,13.8,-,N/A,Rain-Thunderstorm,Light Thunderstorms and Rain,30,2013-10-12 01:36:00
9:41 PM,64.4,64.4,100,29.97,9.0,NNE,12.7,-,N/A,Thunderstorm,Thunderstorm,30,2013-10-12 01:41:00
9:46 PM,64.4,64.4,100,29.97,10.0,NNE,15.0,-,N/A,Thunderstorm,Thunderstorm,30,2013-10-12 01:46:00
9:51 PM,64.4,62.6,94,29.98,10.0,NNE,15.0,-,N/A,Thunderstorm,Thunderstorm,20,2013-10-12 01:51:00
9:58 PM,63.5,63.5,100,29.98,10.0,NNE,17.3,-,0.01,Thunderstorm,Thunderstorm,30,2013-10-12 01:58:00
10:03 PM,62.6,62.6,100,29.97,10.0,NNE,18.4,26.5,N/A,Thunderstorm,Thunderstorm,20,2013-10-12 02:03:00
10:06 PM,62.6,62.6,100,29.97,10.0,NNE,18.4,26.5,N/A,,Overcast,30,2013-10-12 02:06:00
10:56 PM,62.6,62.6,100,29.96,10.0,NE,16.1,21.9,N/A,,Overcast,40,2013-10-12 02:56:00
10:58 PM,63.1,62.8,99,29.97,10.0,NE,16.1,21.9,N/A,,Overcast,40,2013-10-12 02:58:00
11:13 PM,62.6,62.6,100,29.96,10.0,NE,16.1,23.0,N/A,,Overcast,40,2013-10-12 03:13:00
11:43 PM,62.6,62.6,100,29.97,10.0,NE,15.0,-,N/A,,Overcast,40,2013-10-12 03:43:00
11:58 PM,63.5,63.1,99,29.98,10.0,NE,15.0,-,N/A,,Overcast,40,2013-10-12 03:58:00